Location: *
(45.9500°N, 9.0833°E)
Time: 20:59:50
(UTC+00:00)

ATLAS CENTAUR R/B - Pass Details

Date: 03 March 2021
Orbit: 475 x 670 km, 64.7° (Epoch: 30 March)

Event Time Altitude Azimuth Distance (km) Brightness Sun altitude
Rises 19:57:54 0° 256° (WSW) 2,520 5.4 -28.9°
Reaches altitude 10° 20:00:30 10° 275° (W) 1,646 4.6 -29.3°
Maximum altitude 20:03:09 19° 322° (NW) 1,215 3.7 -29.8°
Enters shadow 20:03:16 19° 324° (NW) 1,217 3.6 -29.8°
